12-07-2022, 00:00:09,    163,    0.0,   19.6,   0.00,   0.00, 1019.2,   55.4, -999.0
12-07-2022, 00:00:19,    163,    0.0,   19.6,   0.00,   0.00, 1019.2,   55.4, -999.0
12-07-2022, 00:00:29,    163,    0.0,   19.6,   0.00,   0.00, 1019.1,   55.4, -999.0
12-07-2022, 00:00:39,    163,    0.0,   19.5,   0.00,   0.00, 1019.2,   55.5, -999.0
12-07-2022, 00:00:49,    163,    0.0,   19.6,   0.00,   0.00, 1019.1,   55.6, -999.0
12-07-2022, 00:00:59,    163,    0.0,   19.6,   0.00,   0.00, 1019.2,   55.6, -999.0
12-07-2022, 00:01:09,    163,    0.0,   19.6,   0.00,   0.00, 1019.1,   55.6, -999.0
12-07-2022, 00:01:19,    163,    0.0,   19.6,   0.00,   0.00, 1019.1,   55.5, -999.0
12-07-2022, 00:01:28,    163,    0.0,   19.6,   0.00,   0.00, 1019.2,   55.5, -999.0
12-07-2022, 00:01:38,    163,    0.0,   19.6,   0.00,   0.00, 1019.2,   55.5, -999.0
12-07-2022, 00:01:49,    163,    0.0,   19.6,   0.00,   0.00, 1019.2,   55.5, -999.0
12-07-2022, 00:01:58,    163,    0.0,   19.6,   0.00,   0.00, 1019.2,   55.5, -999.0
12-07-2022, 00:02:08,    163,    0.0,   19.6,   0.00,   0.00, 1019.2,   55.5, -999.0
12-07-2022, 00:02:18,    163,    0.0,   19.5,   0.00,   0.00, 1019.1,   55.5, -999.0
12-07-2022, 00:02:28,    163,    0.0,   19.5,   0.00,   0.00, 1019.2,   55.4, -999.0
12-07-2022, 00:02:38,    163,    0.0,   19.6,   0.00,   0.00, 1019.2,   55.6, -999.0
12-07-2022, 00:02:48,    163,    0.0,   19.6,   0.00,   0.00, 1019.2,   55.6, -999.0
12-07-2022, 00:02:58,    163,    0.0,   19.6,   0.00,   0.00, 1019.2,   55.5, -999.0
12-07-2022, 00:03:08,    163,    0.0,   19.5,   0.00,   0.00, 1019.2,   55.6, -999.0
12-07-2022, 00:03:18,    163,    0.0,   19.6,   0.00,   0.00, 1019.2,   55.6, -999.0
12-07-2022, 00:03:28,    163,    0.0,   19.5,   0.00,   0.00, 1019.2,   55.6, -999.0
12-07-2022, 00:03:38,    163,    0.0,   19.6,   0.00,   0.00, 1019.2,   55.7, -999.0
12-07-2022, 00:03:48,    163,    0.0,   19.6,   0.00,   0.00, 1019.2,   55.6, -999.0
12-07-2022, 00:03:58,    163,    0.0,   19.6,   0.00,   0.00, 1019.2,   55.6, -999.0
12-07-2022, 00:04:07,    163,    0.0,   19.5,   0.00,   0.00, 1019.2,   55.7, -999.0
12-07-2022, 00:04:18,    163,    0.0,   19.5,   0.00,   0.00, 1019.2,   55.7, -999.0
12-07-2022, 00:04:27,    163,    0.0,   19.5,   0.00,   0.00, 1019.2,   55.7, -999.0
12-07-2022, 00:04:37,    163,    0.0,   19.5,   0.00,   0.00, 1019.2,   55.7, -999.0
12-07-2022, 00:04:47,    163,    0.0,   19.6,   0.00,   0.00, 1019.2,   55.7, -999.0
12-07-2022, 00:04:57,    163,    0.0,   19.5,   0.00,   0.00, 1019.2,   55.8, -999.0
12-07-2022, 00:05:07,    163,    0.0,   19.5,   0.00,   0.00, 1019.2,   55.8, -999.0
12-07-2022, 00:05:17,    163,    0.0,   19.5,   0.00,   0.00, 1019.2,   55.7, -999.0
12-07-2022, 00:05:27,    163,    0.0,   19.4,   0.00,   0.00, 1019.2,   55.7, -999.0
12-07-2022, 00:05:37,    163,    0.0,   19.5,   0.00,   0.00, 1019.2,   55.8, -999.0
12-07-2022, 00:05:47,    163,    0.0,   19.3,   0.00,   0.00, 1019.2,   55.8, -999.0
12-07-2022, 00:05:57,    163,    0.0,   19.4,   0.00,   0.00, 1019.2,   55.8, -999.0
12-07-2022, 00:06:07,    163,    0.0,   19.4,   0.00,   0.00, 1019.2,   55.8, -999.0
12-07-2022, 00:06:17,    163,    0.0,   19.4,   0.00,   0.00, 1019.2,   55.9, -999.0
12-07-2022, 00:06:36,    163,    0.0,   19.3,   0.00,   0.00, 1019.2,   55.9, -999.0
12-07-2022, 00:06:47,    163,    0.0,   19.4,   0.00,   0.00, 1019.2,   55.9, -999.0
12-07-2022, 00:06:57,    163,    0.0,   19.4,   0.00,   0.00, 1019.2,   55.9, -999.0
12-07-2022, 00:07:06,    163,    0.0,   19.4,   0.00,   0.00, 1019.2,   56.0, -999.0
12-07-2022, 00:07:18,    163,    0.0,   19.4,   0.00,   0.00, 1019.3,   55.9, -999.0
12-07-2022, 00:07:26,    163,    0.0,   19.4,   0.00,   0.00, 1019.2,   56.0, -999.0
12-07-2022, 00:07:36,    164,    0.0,   19.4,   0.00,   0.00, 1019.3,   56.0, -999.0
12-07-2022, 00:07:46,    163,    0.0,   19.5,   0.00,   0.00, 1019.2,   56.0, -999.0
12-07-2022, 00:07:56,    163,    0.0,   19.4,   0.00,   0.00, 1019.2,   56.0, -999.0
12-07-2022, 00:08:06,    163,    0.0,   19.4,   0.00,   0.00, 1019.2,   55.9, -999.0
12-07-2022, 00:08:16,    163,    0.0,   19.3,   0.00,   0.00, 1019.2,   56.1, -999.0
12-07-2022, 00:08:26,    163,    0.0,   19.4,   0.00,   0.00, 1019.3,   56.1, -999.0
12-07-2022, 00:08:36,    163,    0.0,   19.4,   0.00,   0.00, 1019.2,   56.0, -999.0
12-07-2022, 00:08:46,    165,    0.0,   19.4,   0.00,   0.00, 1019.2,   56.1, -999.0
12-07-2022, 00:08:56,    163,    0.0,   19.4,   0.00,   0.00, 1019.3,   56.0, -999.0
12-07-2022, 00:09:05,    163,    0.0,   19.4,   0.00,   0.00, 1019.2,   56.1, -999.0
12-07-2022, 00:09:16,    163,    0.0,   19.4,   0.00,   0.00, 1019.2,   56.0, -999.0
12-07-2022, 00:09:26,    163,    0.0,   19.4,   0.00,   0.00, 1019.3,   56.1, -999.0
12-07-2022, 00:09:35,    163,    0.0,   19.2,   0.00,   0.00, 1019.2,   56.0, -999.0
12-07-2022, 00:09:46,    164,    0.0,   19.4,   0.00,   0.00, 1019.3,   56.0, -999.0
12-07-2022, 00:09:56,    163,    0.0,   19.4,   0.00,   0.00, 1019.3,   56.1, -999.0
12-07-2022, 00:10:05,    163,    0.0,   19.4,   0.00,   0.00, 1019.3,   56.1, -999.0
12-07-2022, 00:10:15,    163,    0.0,   19.4,   0.00,   0.00, 1019.2,   56.1, -999.0
12-07-2022, 00:10:25,    164,    0.0,   19.4,   0.00,   0.00, 1019.3,   56.1, -999.0
12-07-2022, 00:10:35,    163,    0.0,   19.4,   0.00,   0.00, 1019.3,   56.0, -999.0
12-07-2022, 00:10:45,    163,    0.0,   19.4,   0.00,   0.00, 1019.3,   56.0, -999.0
12-07-2022, 00:10:55,    163,    0.0,   19.4,   0.00,   0.00, 1019.3,   56.1, -999.0
12-07-2022, 00:11:05,    163,    0.0,   19.4,   0.00,   0.00, 1019.3,   56.1, -999.0
12-07-2022, 00:11:15,    163,    0.0,   19.4,   0.00,   0.00, 1019.2,   56.1, -999.0
12-07-2022, 00:11:25,    163,    0.0,   19.4,   0.00,   0.00, 1019.3,   56.2, -999.0
12-07-2022, 00:11:35,    163,    0.0,   19.4,   0.00,   0.00, 1019.2,   56.3, -999.0
12-07-2022, 00:11:45,    163,    0.0,   19.4,   0.00,   0.00, 1019.3,   56.1, -999.0
12-07-2022, 00:11:55,    164,    0.0,   19.4,   0.00,   0.00, 1019.3,   56.3, -999.0
12-07-2022, 00:12:04,    163,    0.0,   19.3,   0.00,   0.00, 1019.3,   56.3, -999.0
12-07-2022, 00:12:15,    163,    0.0,   19.4,   0.00,   0.00, 1019.3,   56.3, -999.0
12-07-2022, 00:12:25,    163,    0.0,   19.4,   0.00,   0.00, 1019.3,   56.3, -999.0
12-07-2022, 00:12:34,    163,    0.0,   19.3,   0.00,   0.00, 1019.3,   56.3, -999.0
12-07-2022, 00:12:44,    163,    0.0,   19.4,   0.00,   0.00, 1019.3,   56.4, -999.0
12-07-2022, 00:12:55,    163,    0.0,   19.4,   0.00,   0.00, 1019.3,   56.3, -999.0
12-07-2022, 00:13:04,    163,    0.0,   19.3,   0.00,   0.00, 1019.3,   56.4, -999.0
12-07-2022, 00:13:14,    163,    0.0,   19.4,   0.00,   0.00, 1019.3,   56.4, -999.0
12-07-2022, 00:13:24,    163,    0.0,   19.3,   0.00,   0.00, 1019.3,   56.5, -999.0
12-07-2022, 00:13:34,    163,    0.0,   19.3,   0.00,   0.00, 1019.3,   56.4, -999.0
12-07-2022, 00:13:44,    163,    0.0,   19.3,   0.00,   0.00, 1019.3,   56.4, -999.0
12-07-2022, 00:13:54,    163,    0.0,   19.3,   0.00,   0.00, 1019.3,   56.5, -999.0
12-07-2022, 00:14:04,    163,    0.0,   19.4,   0.00,   0.00, 1019.3,   56.5, -999.0
12-07-2022, 00:14:14,    163,    0.0,   19.4,   0.00,   0.00, 1019.3,   56.4, -999.0
12-07-2022, 00:14:24,    163,    0.0,   19.3,   0.00,   0.00, 1019.3,   56.6, -999.0
12-07-2022, 00:14:34,    163,    0.0,   19.4,   0.00,   0.00, 1019.3,   56.5, -999.0
12-07-2022, 00:14:44,    164,    0.0,   19.4,   0.00,   0.00, 1019.3,   56.5, -999.0
12-07-2022, 00:14:54,    164,    0.0,   19.3,   0.00,   0.00, 1019.3,   56.5, -999.0
12-07-2022, 00:15:04,    163,    0.0,   19.2,   0.00,   0.00, 1019.3,   56.5, -999.0
12-07-2022, 00:15:13,    163,    0.0,   19.3,   0.00,   0.00, 1019.3,   56.5, -999.0
12-07-2022, 00:15:24,    163,    0.0,   19.3,   0.00,   0.00, 1019.3,   56.5, -999.0
12-07-2022, 00:15:33,    163,    0.0,   19.4,   0.00,   0.00, 1019.3,   56.5, -999.0
12-07-2022, 00:15:43,    163,    0.0,   19.4,   0.00,   0.00, 1019.3,   56.5, -999.0
12-07-2022, 00:15:53,    163,    0.0,   19.3,   0.00,   0.00, 1019.3,   56.4, -999.0
12-07-2022, 00:16:03,    163,    0.0,   19.4,   0.00,   0.00, 1019.3,   56.5, -999.0
12-07-2022, 00:16:13,    163,    0.0,   19.4,   0.00,   0.00, 1019.3,   56.5, -999.0
12-07-2022, 00:16:23,    163,    0.0,   19.4,   0.00,   0.00, 1019.3,   56.5, -999.0
12-07-2022, 00:16:33,    163,    0.0,   19.4,   0.00,   0.00, 1019.3,   56.4, -999.0
12-07-2022, 00:16:43,    163,    0.0,   19.4,   0.00,   0.00, 1019.3,   56.6, -999.0
12-07-2022, 00:16:53,    163,    0.0,   19.3,   0.00,   0.00, 1019.3,   56.7, -999.0
12-07-2022, 00:17:03,    163,    0.0,   19.4,   0.00,   0.00, 1019.3,   56.6, -999.0
12-07-2022, 00:17:13,    163,    0.0,   19.4,   0.00,   0.00, 1019.3,   56.5, -999.0
12-07-2022, 00:17:23,    163,    0.0,   19.5,   0.00,   0.00, 1019.3,   56.4, -999.0
12-07-2022, 00:17:33,    163,    0.0,   19.4,   0.00,   0.00, 1019.2,   56.5, -999.0
12-07-2022, 00:17:42,    163,    0.0,   19.4,   0.00,   0.00, 1019.3,   56.4, -999.0
12-07-2022, 00:17:53,    163,    0.0,   19.4,   0.00,   0.00, 1019.2,   56.5, -999.0
12-07-2022, 00:18:03,    163,    0.0,   19.3,   0.00,   0.00, 1019.2,   56.5, -999.0
12-07-2022, 00:18:12,    163,    0.0,   19.5,   0.00,   0.00, 1019.2,   56.4, -999.0
12-07-2022, 00:18:22,    163,    0.0,   19.5,   0.00,   0.00, 1019.3,   56.2, -999.0
12-07-2022, 00:18:32,    163,    0.0,   19.4,   0.00,   0.00, 1019.2,   56.2, -999.0
12-07-2022, 00:18:42,    164,    0.0,   19.4,   0.00,   0.00, 1019.2,   56.2, -999.0
12-07-2022, 00:18:52,    163,    0.0,   19.4,   0.00,   0.00, 1019.2,   56.2, -999.0
12-07-2022, 00:19:02,    163,    0.0,   19.5,   0.00,   0.00, 1019.2,   56.2, -999.0
12-07-2022, 00:19:12,    163,    0.0,   19.5,   0.00,   0.00, 1019.2,   56.3, -999.0
12-07-2022, 00:19:22,    163,    0.0,   19.6,   0.00,   0.00, 1019.2,   56.4, -999.0
12-07-2022, 00:19:32,    163,    0.0,   19.5,   0.00,   0.00, 1019.2,   56.4, -999.0
12-07-2022, 00:19:42,    163,    0.0,   19.6,   0.00,   0.00, 1019.2,   56.3, -999.0
12-07-2022, 00:19:52,    163,    0.0,   19.5,   0.00,   0.00, 1019.2,   56.4, -999.0
12-07-2022, 00:20:02,    163,    0.0,   19.5,   0.00,   0.00, 1019.2,   56.3, -999.0
12-07-2022, 00:20:11,    163,    0.0,   19.4,   0.00,   0.00, 1019.2,   56.4, -999.0
12-07-2022, 00:20:22,    163,    0.0,   19.5,   0.00,   0.00, 1019.2,   56.4, -999.0
12-07-2022, 00:20:32,    163,    0.0,   19.5,   0.00,   0.00, 1019.1,   56.5, -999.0
12-07-2022, 00:20:41,    163,    0.0,   19.5,   0.00,   0.00, 1019.2,   56.4, -999.0
12-07-2022, 00:20:51,    163,    0.0,   19.5,   0.00,   0.00, 1019.2,   56.4, -999.0
12-07-2022, 00:21:02,    163,    0.0,   19.5,   0.00,   0.00, 1019.1,   56.4, -999.0
12-07-2022, 00:21:11,    163,    0.0,   19.5,   0.00,   0.00, 1019.1,   56.4, -999.0
12-07-2022, 00:21:21,    163,    0.0,   19.5,   0.00,   0.00, 1019.2,   56.4, -999.0
12-07-2022, 00:21:31,    163,    0.0,   19.5,   0.00,   0.00, 1019.1,   56.4, -999.0
12-07-2022, 00:21:41,    163,    0.0,   19.5,   0.00,   0.00, 1019.1,   56.4, -999.0
12-07-2022, 00:21:51,    163,    0.0,   19.4,   0.00,   0.00, 1019.1,   56.4, -999.0
12-07-2022, 00:22:01,    163,    0.0,   19.4,   0.00,   0.00, 1019.1,   56.4, -999.0
12-07-2022, 00:22:11,    163,    0.0,   19.5,   0.00,   0.00, 1019.1,   56.3, -999.0
12-07-2022, 00:22:21,    163,    0.0,   19.5,   0.00,   0.00, 1019.1,   56.2, -999.0
12-07-2022, 00:22:31,    163,    0.0,   19.5,   0.00,   0.00, 1019.1,   56.3, -999.0
12-07-2022, 00:22:41,    163,    0.0,   19.5,   0.00,   0.00, 1019.1,   56.3, -999.0
12-07-2022, 00:22:51,    163,    0.0,   19.4,   0.00,   0.00, 1019.0,   56.2, -999.0
12-07-2022, 00:23:01,    163,    0.0,   19.5,   0.00,   0.00, 1019.1,   56.3, -999.0
12-07-2022, 00:23:10,    163,    0.0,   19.4,   0.00,   0.00, 1019.1,   56.4, -999.0
12-07-2022, 00:23:21,    163,    0.0,   19.5,   0.00,   0.00, 1019.1,   56.4, -999.0
12-07-2022, 00:23:31,    164,    0.0,   19.5,   0.00,   0.00, 1019.1,   56.5, -999.0
12-07-2022, 00:23:40,    163,    0.0,   19.5,   0.00,   0.00, 1019.1,   56.4, -999.0
12-07-2022, 00:23:50,    163,    0.0,   19.5,   0.00,   0.00, 1019.0,   56.4, -999.0
12-07-2022, 00:24:01,    163,    0.0,   19.5,   0.00,   0.00, 1019.0,   56.4, -999.0
12-07-2022, 00:24:10,    163,    0.0,   19.5,   0.00,   0.00, 1019.0,   56.3, -999.0
12-07-2022, 00:24:20,    163,    0.0,   19.6,   0.00,   0.00, 1019.0,   56.3, -999.0
12-07-2022, 00:24:30,    163,    0.0,   19.6,   0.00,   0.00, 1019.0,   56.2, -999.0
12-07-2022, 00:24:40,    163,    0.0,   19.5,   0.00,   0.00, 1019.0,   56.1, -999.0
12-07-2022, 00:24:50,    163,    0.0,   19.5,   0.00,   0.00, 1019.0,   56.1, -999.0
12-07-2022, 00:25:00,    164,    0.0,   19.5,   0.00,   0.00, 1019.0,   56.1, -999.0
12-07-2022, 00:25:10,    163,    0.0,   19.5,   0.00,   0.00, 1019.0,   56.1, -999.0
12-07-2022, 00:25:20,    163,    0.0,   19.4,   0.00,   0.00, 1019.0,   56.2, -999.0
12-07-2022, 00:25:30,    163,    0.0,   19.4,   0.00,   0.00, 1019.0,   56.2, -999.0
12-07-2022, 00:25:40,    163,    0.0,   19.4,   0.00,   0.00, 1019.0,   56.4, -999.0
12-07-2022, 00:25:50,    163,    0.0,   19.5,   0.00,   0.00, 1019.0,   56.4, -999.0
12-07-2022, 00:26:00,    163,    0.0,   19.4,   0.00,   0.00, 1019.0,   56.4, -999.0
12-07-2022, 00:26:09,    163,    0.0,   19.4,   0.00,   0.00, 1019.0,   56.4, -999.0
12-07-2022, 00:26:19,    163,    0.0,   19.4,   0.00,   0.00, 1019.1,   56.5, -999.0
12-07-2022, 00:26:30,    163,    0.0,   19.4,   0.00,   0.00, 1019.0,   56.5, -999.0
12-07-2022, 00:26:39,    163,    0.0,   19.3,   0.00,   0.00, 1019.1,   56.5, -999.0
12-07-2022, 00:26:49,    163,    0.0,   19.3,   0.00,   0.00, 1019.0,   56.7, -999.0
12-07-2022, 00:26:59,    163,    0.0,   19.3,   0.00,   0.00, 1019.0,   56.6, -999.0
12-07-2022, 00:27:09,    165,    0.0,   19.2,   0.00,   0.00, 1019.0,   56.6, -999.0
12-07-2022, 00:27:19,    165,    0.0,   19.3,   0.00,   0.00, 1019.0,   56.7, -999.0
12-07-2022, 00:27:29,    165,    0.0,   19.2,   0.00,   0.00, 1019.0,   56.7, -999.0
12-07-2022, 00:27:39,    165,    0.0,   19.3,   0.00,   0.00, 1019.0,   56.8, -999.0
12-07-2022, 00:27:49,    165,    0.0,   19.3,   0.00,   0.00, 1019.0,   56.8, -999.0
12-07-2022, 00:27:59,    165,    0.0,   19.3,   0.00,   0.00, 1019.0,   56.8, -999.0
12-07-2022, 00:28:09,    165,    0.0,   19.3,   0.00,   0.00, 1019.0,   56.8, -999.0
12-07-2022, 00:28:19,    165,    0.0,   19.3,   0.00,   0.00, 1019.0,   56.8, -999.0
12-07-2022, 00:28:29,    165,    0.0,   19.3,   0.00,   0.00, 1019.0,   56.9, -999.0
12-07-2022, 00:28:39,    165,    0.0,   19.3,   0.00,   0.00, 1019.0,   56.7, -999.0
12-07-2022, 00:28:48,    165,    0.0,   19.3,   0.00,   0.00, 1019.0,   56.6, -999.0
12-07-2022, 00:28:59,    165,    0.0,   19.3,   0.00,   0.00, 1019.0,   56.7, -999.0
12-07-2022, 00:29:08,    165,    0.0,   19.2,   0.00,   0.00, 1019.0,   56.5, -999.0
12-07-2022, 00:29:18,    165,    0.0,   19.2,   0.00,   0.00, 1019.0,   56.6, -999.0
12-07-2022, 00:29:28,    165,    0.0,   19.1,   0.00,   0.00, 1019.0,   56.5, -999.0
12-07-2022, 00:29:38,    165,    0.0,   19.0,   0.00,   0.00, 1019.0,   56.6, -999.0
12-07-2022, 00:29:48,    165,    0.0,   19.0,   0.00,   0.00, 1019.0,   56.8, -999.0
12-07-2022, 00:29:58,    166,    0.0,   19.0,   0.00,   0.00, 1019.0,   56.9, -999.0
12-07-2022, 00:30:08,    165,    0.0,   19.0,   0.00,   0.00, 1019.0,   57.1, -999.0
12-07-2022, 00:30:18,    165,    0.0,   19.0,   0.00,   0.00, 1019.0,   57.1, -999.0
12-07-2022, 00:30:28,    165,    0.0,   19.0,   0.00,   0.00, 1019.0,   57.2, -999.0
12-07-2022, 00:30:38,    166,    0.0,   19.0,   0.00,   0.00, 1019.0,   57.0, -999.0
12-07-2022, 00:30:48,    165,    0.0,   19.0,   0.00,   0.00, 1019.0,   56.9, -999.0
12-07-2022, 00:30:58,    165,    0.0,   19.0,   0.00,   0.00, 1018.9,   56.9, -999.0
12-07-2022, 00:31:08,    165,    0.0,   19.0,   0.00,   0.00, 1018.9,   56.9, -999.0
12-07-2022, 00:31:17,    165,    0.0,   18.9,   0.00,   0.00, 1019.0,   57.0, -999.0
12-07-2022, 00:31:28,    165,    0.0,   19.0,   0.00,   0.00, 1018.9,   57.0, -999.0
12-07-2022, 00:31:38,    165,    0.0,   19.0,   0.00,   0.00, 1018.9,   57.1, -999.0
12-07-2022, 00:31:47,    165,    0.0,   19.1,   0.00,   0.00, 1018.9,   57.1, -999.0
12-07-2022, 00:31:57,    165,    0.0,   19.1,   0.00,   0.00, 1018.9,   57.2, -999.0
12-07-2022, 00:32:08,    165,    0.0,   19.1,   0.00,   0.00, 1019.0,   57.0, -999.0
12-07-2022, 00:32:17,    165,    0.0,   19.2,   0.00,   0.00, 1019.0,   57.0, -999.0
12-07-2022, 00:32:27,    165,    0.0,   19.1,   0.00,   0.00, 1018.9,   56.9, -999.0
12-07-2022, 00:32:37,    165,    0.0,   19.1,   0.00,   0.00, 1019.0,   56.9, -999.0
12-07-2022, 00:32:47,    165,    0.0,   19.1,   0.00,   0.00, 1018.9,   56.9, -999.0
12-07-2022, 00:32:57,    165,    0.0,   19.0,   0.00,   0.00, 1018.9,   57.0, -999.0
12-07-2022, 00:33:07,    165,    0.0,   19.0,   0.00,   0.00, 1018.9,   56.9, -999.0
12-07-2022, 00:33:17,    165,    0.0,   19.0,   0.00,   0.00, 1018.9,   56.9, -999.0
12-07-2022, 00:33:27,    165,    0.0,   19.0,   0.00,   0.00, 1018.9,   57.0, -999.0
12-07-2022, 00:33:37,    165,    0.0,   19.0,   0.00,   0.00, 1018.9,   56.9, -999.0
12-07-2022, 00:33:47,    165,    0.0,   19.0,   0.00,   0.00, 1018.9,   57.0, -999.0
12-07-2022, 00:33:57,    165,    0.0,   19.0,   0.00,   0.00, 1019.0,   56.9, -999.0
12-07-2022, 00:34:07,    165,    0.0,   19.0,   0.00,   0.00, 1018.9,   56.9, -999.0
12-07-2022, 00:34:17,    167,    0.0,   19.0,   0.00,   0.00, 1019.0,   56.8, -999.0
12-07-2022, 00:34:26,    166,    0.0,   18.9,   0.00,   0.00, 1018.9,   56.8, -999.0
12-07-2022, 00:34:37,    166,    0.0,   18.9,   0.00,   0.00, 1019.0,   56.9, -999.0
12-07-2022, 00:34:46,    166,    0.0,   18.9,   0.00,   0.00, 1019.0,   57.0, -999.0
12-07-2022, 00:34:56,    166,    0.0,   18.8,   0.00,   0.00, 1019.0,   57.0, -999.0
12-07-2022, 00:35:06,    166,    0.0,   18.9,   0.00,   0.00, 1019.0,   57.1, -999.0
12-07-2022, 00:35:16,    166,    0.0,   18.8,   0.00,   0.00, 1019.0,   57.1, -999.0
12-07-2022, 00:35:26,    166,    0.0,   18.8,   0.00,   0.00, 1019.0,   57.1, -999.0
12-07-2022, 00:35:36,    166,    0.0,   18.7,   0.00,   0.00, 1019.0,   57.2, -999.0
12-07-2022, 00:35:46,    166,    0.0,   18.7,   0.00,   0.00, 1019.0,   56.9, -999.0
12-07-2022, 00:35:56,    166,    0.0,   18.8,   0.00,   0.00, 1019.0,   57.0, -999.0
12-07-2022, 00:36:06,    166,    0.0,   18.8,   0.00,   0.00, 1019.0,   57.1, -999.0
12-07-2022, 00:36:16,    165,    0.0,   18.7,   0.00,   0.00, 1019.0,   57.0, -999.0
12-07-2022, 00:36:26,    165,    0.0,   18.8,   0.00,   0.00, 1019.0,   57.2, -999.0
12-07-2022, 00:36:36,    166,    0.0,   18.7,   0.00,   0.00, 1019.0,   57.2, -999.0
12-07-2022, 00:36:46,    166,    0.0,   18.7,   0.00,   0.00, 1019.1,   57.3, -999.0
12-07-2022, 00:36:55,    166,    0.0,   18.7,   0.00,   0.00, 1019.1,   57.3, -999.0
12-07-2022, 00:37:06,    166,    0.0,   18.7,   0.00,   0.00, 1019.1,   57.4, -999.0
12-07-2022, 00:37:16,    166,    0.0,   18.7,   0.00,   0.00, 1019.1,   57.3, -999.0
12-07-2022, 00:37:25,    166,    0.0,   18.7,   0.00,   0.00, 1019.1,   57.3, -999.0
12-07-2022, 00:37:36,    166,    0.0,   18.7,   0.00,   0.00, 1019.1,   57.3, -999.0
12-07-2022, 00:37:45,    166,    0.0,   18.7,   0.00,   0.00, 1019.2,   57.3, -999.0
12-07-2022, 00:37:55,    166,    0.0,   18.7,   0.00,   0.00, 1019.2,   57.3, -999.0
12-07-2022, 00:38:05,    166,    0.0,   18.7,   0.00,   0.00, 1019.2,   57.3, -999.0
12-07-2022, 00:38:15,    166,    0.0,   18.7,   0.00,   0.00, 1019.1,   57.3, -999.0
12-07-2022, 00:38:25,    166,    0.0,   18.6,   0.00,   0.00, 1019.2,   57.4, -999.0
12-07-2022, 00:38:35,    166,    0.0,   18.7,   0.00,   0.00, 1019.1,   57.5, -999.0
12-07-2022, 00:38:45,    166,    0.0,   18.7,   0.00,   0.00, 1019.2,   57.6, -999.0
12-07-2022, 00:38:55,    166,    0.0,   18.6,   0.00,   0.00, 1019.2,   57.6, -999.0
12-07-2022, 00:39:05,    166,    0.0,   18.7,   0.00,   0.00, 1019.2,   57.6, -999.0
12-07-2022, 00:39:15,    166,    0.0,   18.7,   0.00,   0.00, 1019.2,   57.7, -999.0
12-07-2022, 00:39:24,    167,    0.0,   18.6,   0.00,   0.00, 1019.2,   57.8, -999.0
12-07-2022, 00:39:35,    166,    0.0,   18.7,   0.00,   0.00, 1019.2,   57.8, -999.0
12-07-2022, 00:39:45,    166,    0.0,   18.6,   0.00,   0.00, 1019.2,   57.9, -999.0
12-07-2022, 00:39:54,    166,    0.0,   18.6,   0.00,   0.00, 1019.2,   57.9, -999.0
12-07-2022, 00:40:05,    166,    0.0,   18.6,   0.00,   0.00, 1019.2,   58.0, -999.0
12-07-2022, 00:40:14,    166,    0.0,   18.7,   0.00,   0.00, 1019.2,   58.1, -999.0
12-07-2022, 00:40:24,    166,    0.0,   18.7,   0.00,   0.00, 1019.2,   58.1, -999.0
12-07-2022, 00:40:34,    166,    0.0,   18.7,   0.00,   0.00, 1019.2,   57.9, -999.0
12-07-2022, 00:40:44,    166,    0.0,   18.6,   0.00,   0.00, 1019.2,   57.9, -999.0
12-07-2022, 00:40:54,    166,    0.0,   18.6,   0.00,   0.00, 1019.2,   57.9, -999.0
12-07-2022, 00:41:04,    166,    0.0,   18.6,   0.00,   0.00, 1019.2,   58.1, -999.0
12-07-2022, 00:41:14,    166,    0.0,   18.6,   0.00,   0.00, 1019.2,   58.0, -999.0
12-07-2022, 00:41:24,    166,    0.0,   18.6,   0.00,   0.00, 1019.2,   58.0, -999.0
12-07-2022, 00:41:34,    166,    0.0,   18.6,   0.00,   0.00, 1019.2,   57.9, -999.0
12-07-2022, 00:41:44,    163,    0.0,   18.5,   0.00,   0.00, 1019.2,   57.9, -999.0
12-07-2022, 00:41:54,    163,    0.0,   18.6,   0.00,   0.00, 1019.2,   58.0, -999.0
12-07-2022, 00:42:04,    167,    0.0,   18.5,   0.00,   0.00, 1019.2,   57.9, -999.0
12-07-2022, 00:42:14,    167,    0.0,   18.6,   0.00,   0.00, 1019.2,   57.9, -999.0
12-07-2022, 00:42:23,    167,    0.0,   18.6,   0.00,   0.00, 1019.2,   58.0, -999.0
12-07-2022, 00:42:34,    167,    0.0,   18.7,   0.00,   0.00, 1019.2,   58.1, -999.0
12-07-2022, 00:42:44,    167,    0.0,   18.8,   0.00,   0.00, 1019.2,   58.0, -999.0
12-07-2022, 00:42:53,    167,    0.0,   18.6,   0.00,   0.00, 1019.2,   58.0, -999.0
12-07-2022, 00:43:03,    167,    0.0,   18.7,   0.00,   0.00, 1019.2,   57.8, -999.0
12-07-2022, 00:43:13,    167,    0.0,   18.6,   0.00,   0.00, 1019.2,   57.9, -999.0
12-07-2022, 00:43:23,    167,    0.0,   18.7,   0.00,   0.00, 1019.1,   57.9, -999.0
12-07-2022, 00:43:33,    167,    0.0,   18.7,   0.00,   0.00, 1019.1,   58.0, -999.0
12-07-2022, 00:43:43,    167,    0.0,   18.6,   0.00,   0.00, 1019.2,   57.9, -999.0
12-07-2022, 00:43:53,    167,    0.0,   18.7,   0.00,   0.00, 1019.1,   58.0, -999.0
12-07-2022, 00:44:03,    167,    0.0,   18.7,   0.00,   0.00, 1019.1,   58.0, -999.0
12-07-2022, 00:44:13,    167,    0.0,   18.7,   0.00,   0.00, 1019.2,   58.0, -999.0
12-07-2022, 00:44:23,    167,    0.0,   18.7,   0.00,   0.00, 1019.2,   58.1, -999.0
12-07-2022, 00:44:33,    167,    0.0,   18.7,   0.00,   0.00, 1019.1,   58.0, -999.0
12-07-2022, 00:44:43,    167,    0.0,   18.7,   0.00,   0.00, 1019.1,   58.0, -999.0
12-07-2022, 00:44:53,    167,    0.0,   18.8,   0.00,   0.00, 1019.1,   58.0, -999.0
12-07-2022, 00:45:03,    167,    0.0,   18.8,   0.00,   0.00, 1019.1,   57.8, -999.0
12-07-2022, 00:45:13,    167,    0.0,   18.8,   0.00,   0.00, 1019.1,   57.7, -999.0
12-07-2022, 00:45:22,    167,    0.0,   18.8,   0.00,   0.00, 1019.1,   57.6, -999.0
12-07-2022, 00:45:32,    167,    0.0,   18.8,   0.00,   0.00, 1019.1,   57.7, -999.0
12-07-2022, 00:45:43,    167,    0.0,   18.7,   0.00,   0.00, 1019.1,   57.7, -999.0
12-07-2022, 00:45:52,    167,    0.0,   18.8,   0.00,   0.00, 1019.1,   57.7, -999.0
12-07-2022, 00:46:02,    167,    0.0,   18.8,   0.00,   0.00, 1019.1,   57.8, -999.0
12-07-2022, 00:46:12,    167,    0.0,   18.8,   0.00,   0.00, 1019.1,   57.7, -999.0
12-07-2022, 00:46:22,    167,    0.0,   18.7,   0.00,   0.00, 1019.1,   57.8, -999.0
12-07-2022, 00:46:32,    167,    0.0,   18.7,   0.00,   0.00, 1019.1,   57.8, -999.0
12-07-2022, 00:46:42,    167,    0.0,   18.7,   0.00,   0.00, 1019.1,   57.7, -999.0
12-07-2022, 00:46:52,    167,    0.0,   18.7,   0.00,   0.00, 1019.1,   57.8, -999.0